sat.trackr.live / text

‹ back to catalog

STARLINK-30517

NORAD 57995 · 2023-153E

PAYLOAD ACTIVE UNKNOWN

§ Identity

Operator
Country
US
Launch date
2023-10-05
Launch site
AFETR
Launch vehicle
Mass (kg)
RCS (m²)

Purposes: comms

External: N2YO · Heavens-Above · Gunter

§ Orbital elements

Epoch: 2026-09-20T20:52:08.608512Z

Period
94.27 min
Inclination
43.0012°
Eccentricity
0.0001115
Mean motion
15.27576010 rev/d
Perigee alt
482.3 km
Apogee alt
483.8 km
Semi-major
6,861.2 km
B*
1.0234e-5
RAAN
45.0305°
Arg perigee
264.4132°
Mean anomaly
95.6592°
Rev number
16,474

§ Raw data

STARLINK-305171 57995U 23153E   26263.86954408  .00000020  00000+0  10234-4 0  99972 57995  43.0012  45.0305 0001115 264.4132  95.6592 15.27576010164746

JSON: /api/v1/satellites/57995 · /tle

For live sub-satellite position, see the globe view (requires WebGL).

§ Visibility from observer

Set your observer location to see the next 7 days of passes ≥ 10°. The values pass through the URL so the page stays shareable.

No JS? Fill the form by hand. The geolocation button needs JavaScript.